Altoona, PA

8:16 AM EDT on June 28, 2017 (GMT -0400)
Altoona-Blair County

Weather History for KAOO - February, 2014

Change the Weather History Date:

Sunday, February 23, 2014

  Actual Average Record
Temperature  
Mean Temperature 35 °F 31 °F  
Max Temperature 44 °F 39 °F 71 °F (2017)
Min Temperature 26 °F 22 °F -3 °F (2015)
Degree Days  
Heating Degree Days 30 34  
Month to date heating degree days 902 834  
Since 1 July heating degree days 4513 4387  
Cooling Degree Days 0 0  
Month to date cooling degree days 0 0  
Year to date cooling degree days 0 0  
Moisture  
Dew Point 27 °F    
Average Humidity 65    
Maximum Humidity 85    
Minimum Humidity 44    
Precipitation  
Precipitation T in 0.08 in 1.19 in (1994)
Month to date precipitation 2.52 1.66  
Year to date precipitation 3.36 3.83  
Sea Level Pressure  
Sea Level Pressure 30.00 in    
Wind  
Wind Speed 6 mph (West)    
Max Wind Speed 16 mph    
Max Gust Speed 21 mph    
Visibility 10 miles    
Events Rain    
T = Trace of Precipitation, MM = Missing Value Source: NWS Daily Summary

Daily Weather History Graph

Daily Weather History Graph

Search for Another Location

Airport or City:

Trip Planner

Search our weather history database for the weather conditions in past years. The results will help you decide how hot, cold, wet, or windy it might be!

Date:

Astronomy

Feb. 23, 2014 Rise Set
Actual Time 6:55 AM EST 5:58 PM EST
Civil Twilight 6:28 AM EST 6:25 PM EST
Nautical Twilight 5:56 AM EST 6:57 PM EST
Astronomical Twilight 5:25 AM EST 7:28 PM EST
Moon 1:52 AM EST (2/23) 11:58 AM EST (2/23)
Length of Visible Light 11h 57m
Length of Day
11h 02m
Last Quarter, 39% of the Moon is Illuminated
Feb 23
Last Quarter
Mar 1
New
Mar 8
First Quarter
Mar 16
Full
Mar 23
Last Quarter

Hourly Weather History & Observations

Time (EST) Temp. Windchill Dew Point Humidity Pressure Visibility Wind Dir Wind Speed Gust Speed Precip Events Conditions
12:53 AM 37.0 °F 34.5 °F 21.0 °F 52% 30.02 in 10.0 mi NNE 3.5 mph - N/A   Clear
1:53 AM 30.9 °F 27.5 °F 21.9 °F 69% 30.03 in 10.0 mi SSE 3.5 mph - N/A   Clear
2:53 AM 34.0 °F 31.0 °F 23.0 °F 64% 30.01 in 10.0 mi NNE 3.5 mph - N/A   Clear
3:53 AM 32.0 °F - 23.0 °F 69% 30.04 in 10.0 mi Calm Calm - N/A   Clear
4:53 AM 30.0 °F - 23.0 °F 75% 30.04 in 10.0 mi Calm Calm - N/A   Clear
5:53 AM 28.0 °F - 23.0 °F 81% 30.05 in 10.0 mi Calm Calm - N/A   Clear
6:53 AM 30.9 °F - 25.0 °F 79% 30.04 in 10.0 mi Calm Calm - N/A   Clear
7:53 AM 28.9 °F 25.2 °F 25.0 °F 85% 30.03 in 10.0 mi SSW 3.5 mph - N/A   Partly Cloudy
8:53 AM 30.9 °F 27.5 °F 26.1 °F 82% 30.05 in 10.0 mi West 3.5 mph - N/A   Clear
9:53 AM 35.1 °F 31.0 °F 28.0 °F 76% 30.05 in 10.0 mi West 4.6 mph - N/A   Clear
10:53 AM 39.0 °F 36.8 °F 30.0 °F 70% 30.01 in 10.0 mi South 3.5 mph - N/A   Clear
11:53 AM 41.0 °F 39.0 °F 28.0 °F 60% 30.00 in 10.0 mi South 3.5 mph - N/A   Partly Cloudy
12:53 PM 42.1 °F 40.2 °F 28.9 °F 60% 29.97 in 10.0 mi South 3.5 mph - N/A   Partly Cloudy
1:53 PM 43.0 °F - 28.9 °F 58% 29.95 in 10.0 mi Calm Calm - N/A   Mostly Cloudy
2:53 PM 43.0 °F 38.8 °F 28.9 °F 58% 29.94 in 10.0 mi WNW 6.9 mph - N/A   Clear
3:53 PM 43.0 °F 37.7 °F 28.9 °F 58% 29.94 in 10.0 mi WNW 9.2 mph - N/A   Overcast
4:53 PM 41.0 °F 34.7 °F 32.0 °F 70% 29.97 in 10.0 mi West 10.4 mph - 0.00 in Rain Light Rain
5:10 PM 39.9 °F 32.1 °F 32.0 °F 73% 29.95 in 10.0 mi West 13.8 mph - 0.00 in Rain Light Rain
5:53 PM 37.0 °F 28.5 °F 32.0 °F 82% 30.00 in 10.0 mi NW 13.8 mph - 0.00 in Rain Light Rain
6:53 PM 35.1 °F 27.4 °F 28.9 °F 78% 30.01 in 10.0 mi WNW 10.4 mph - 0.00 in   Overcast
7:53 PM 35.1 °F 28.6 °F 27.0 °F 72% 30.00 in 10.0 mi WNW 8.1 mph 18.4 mph N/A   Overcast
8:53 PM 35.1 °F 26.9 °F 27.0 °F 72% 29.98 in 10.0 mi West 11.5 mph - N/A   Overcast
9:53 PM 35.1 °F 27.9 °F 26.1 °F 70% 29.97 in 10.0 mi West 9.2 mph - N/A   Mostly Cloudy
10:53 PM 34.0 °F 26.6 °F 25.0 °F 70% 29.96 in 10.0 mi West 9.2 mph - N/A   Partly Cloudy
11:16 PM 35.1 °F 28.6 °F 27.0 °F 72% 29.92 in 10.0 mi West 8.1 mph - N/A   Overcast
11:53 PM 34.0 °F 25.5 °F 26.1 °F 73% 29.94 in 10.0 mi West 11.5 mph - N/A   Overcast